Sacramento, CA

12:22 AM PDT on August 18, 2017 (GMT -0700)
Sacramento Executive

Weather History for KSAC - February, 2014

Change the Weather History Date:

Friday, February 28, 2014

  Actual Average Record
Temperature  
Mean Temperature 56 °F -  
Max Temperature 58 °F 63 °F 74 °F (1985)
Min Temperature 53 °F 43 °F 30 °F (1945)
Degree Days  
Heating Degree Days 9    
Cooling Degree Days 0    
Growing Degree Days 5 (Base 50)    
Moisture  
Dew Point 51 °F    
Average Humidity 78    
Maximum Humidity 93    
Minimum Humidity 62    
Precipitation  
Precipitation 0.72 in 0.12 in 0.86 in (2014)
Month to date precipitation 4.00 3.47  
Year to date precipitation 4.15 7.11  
Since 1 July precipitation 6.05  
Sea Level Pressure  
Sea Level Pressure 29.47 in    
Wind  
Wind Speed 8 mph (SE)    
Max Wind Speed 16 mph    
Max Gust Speed 26 mph    
Visibility 9 miles    
Events Rain    
T = Trace of Precipitation, MM = Missing Value Source: NWS Daily Summary

Daily Weather History Graph

Daily Weather History Graph

Search for Another Location

Airport or City:

Trip Planner

Search our weather history database for the weather conditions in past years. The results will help you decide how hot, cold, wet, or windy it might be!

Date:

Astronomy

Feb. 28, 2014 Rise Set
Actual Time 6:39 AM PST 5:58 PM PST
Civil Twilight 6:12 AM PST 6:24 PM PST
Nautical Twilight 5:42 AM PST 6:55 PM PST
Astronomical Twilight 5:11 AM PST 7:26 PM PST
Moon 5:57 AM PST (2/28) 5:41 PM PST (2/28)
Length of Visible Light 12h 12m
Length of Day
11h 18m
Waning Crescent, 0% of the Moon is Illuminated
Feb 28
Waning Crescent
Mar 1
New
Mar 8
First Quarter
Mar 16
Full
Mar 23
Last Quarter

Hourly Weather History & Observations

Time (PST) Temp. Dew Point Humidity Pressure Visibility Wind Dir Wind Speed Gust Speed Precip Events Conditions
12:53 AM 55.9 °F 46.0 °F 69% 29.58 in 10.0 mi ENE 5.8 mph - N/A   Partly Cloudy
1:53 AM 57.9 °F 44.1 °F 60% 29.56 in 10.0 mi East 4.6 mph - N/A   Overcast
2:53 AM 55.9 °F 46.9 °F 72% 29.52 in 6.0 mi SE 10.4 mph - 0.04 in Rain Rain
3:53 AM 55.0 °F 50.0 °F 83% 29.48 in 7.0 mi SSE 11.5 mph 19.6 mph 0.15 in Rain Rain
4:53 AM 53.1 °F 51.1 °F 93% 29.47 in 7.0 mi South 6.9 mph - 0.20 in Rain Rain
5:53 AM 53.1 °F 51.1 °F 93% 29.48 in 6.0 mi SSE 11.5 mph 21.9 mph 0.11 in Rain Light Rain
6:53 AM 53.1 °F 50.0 °F 89% 29.44 in 10.0 mi ESE 6.9 mph - 0.04 in Rain Light Rain
7:53 AM 53.1 °F 51.1 °F 93% 29.46 in 10.0 mi North - - 0.00 in   Overcast
8:07 AM 53.6 °F 51.8 °F 94% 29.46 in 10.0 mi North - - N/A   Overcast
8:13 AM 53.6 °F 51.8 °F 94% 29.46 in 10.0 mi East 9.2 mph 27.6 mph N/A   Overcast
8:20 AM 53.6 °F 51.8 °F 94% 29.46 in 10.0 mi East 9.2 mph - N/A   Overcast
8:53 AM 54.0 °F 52.0 °F 93% 29.46 in 10.0 mi East 8.1 mph - N/A   Overcast
9:53 AM 55.0 °F 52.0 °F 89% 29.46 in 10.0 mi SSE 12.7 mph 18.4 mph 0.01 in Rain Light Rain
10:53 AM 57.0 °F 53.1 °F 87% 29.46 in 10.0 mi SSE 10.4 mph - 0.01 in Rain Light Rain
11:53 AM 57.0 °F 52.0 °F 83% 29.45 in 10.0 mi SE 6.9 mph - 0.00 in   Overcast
12:53 PM 55.9 °F 51.1 °F 84% 29.43 in 7.0 mi SSE 11.5 mph 23.0 mph 0.01 in Rain Rain
1:53 PM 55.0 °F 53.1 °F 93% 29.41 in 7.0 mi SE 4.6 mph - 0.12 in Rain Light Rain
2:53 PM 55.9 °F 53.1 °F 90% 29.41 in 10.0 mi Calm Calm - 0.01 in Rain Light Rain
3:53 PM 55.0 °F 53.1 °F 93% 29.41 in 10.0 mi East 4.6 mph - 0.02 in Rain Light Rain
4:49 PM 55.4 °F 53.6 °F 94% 29.42 in 10.0 mi ESE 4.6 mph - 0.00 in Rain Light Rain
4:53 PM 55.9 °F 54.0 °F 93% 29.42 in 10.0 mi East 4.6 mph - 0.00 in Rain Light Rain
5:03 PM 55.4 °F 53.6 °F 94% 29.42 in 10.0 mi ESE 4.6 mph - 0.00 in Rain Light Rain
5:20 PM 55.4 °F 51.8 °F 88% 29.42 in 10.0 mi SE 9.2 mph 17.3 mph 0.00 in   Overcast
5:53 PM 55.0 °F 52.0 °F 89% 29.44 in 10.0 mi SE 5.8 mph - 0.01 in Rain Light Rain
6:53 PM 54.0 °F 52.0 °F 93% 29.47 in 10.0 mi SE 12.7 mph - 0.04 in Rain Light Rain
7:53 PM 53.1 °F 52.0 °F 96% 29.49 in 8.0 mi ESE 8.1 mph - 0.09 in Rain Light Rain
8:53 PM 53.1 °F 51.1 °F 93% 29.50 in 10.0 mi SE 6.9 mph - 0.00 in   Overcast
9:53 PM 53.1 °F 50.0 °F 89% 29.53 in 10.0 mi SE 9.2 mph 18.4 mph N/A   Clear
10:53 PM 53.1 °F 50.0 °F 89% 29.54 in 10.0 mi SE 11.5 mph - N/A   Clear
11:53 PM 54.0 °F 48.9 °F 83% 29.55 in 10.0 mi SE 11.5 mph 17.3 mph N/A   Scattered Clouds